| time (UTC) | temp F | wind direction | speed MPH | gust MPH | rain 1hr in | rain 24hr in | rain mn in | humidity % | barometer mb |
| 20260831213256 | 113 | 162 | 0.0 | 0.0 | 0.00 | 0.00 | 0.00 | 24 | 1018.5 |
| 20260831212756 | 119 | 162 | 0.0 | 0.0 | 0.00 | 0.00 | 0.00 | 21 | 1018.5 |
| 20260831212253 | 117 | 162 | 0.0 | 0.0 | 0.00 | 0.00 | 0.00 | 22 | 1018.5 |
| 20260831211751 | 114 | 161 | 0.0 | 0.0 | 0.00 | 0.00 | 0.00 | 24 | 1018.6 |
| 20260831211246 | 113 | 162 | 0.0 | 0.0 | 0.00 | 0.00 | 0.00 | 24 | 1018.6 |
| 20260831210741 | 113 | 162 | 0.0 | 0.0 | 0.00 | 0.00 | 0.00 | 24 | 1018.9 |
| 20260831210237 | 111 | 162 | 0.0 | 0.0 | 0.00 | 0.00 | 0.00 | 25 | 1018.7 |
| 20260831205736 | 108 | 161 | 0.0 | 0.0 | 0.00 | 0.00 | 0.00 | 26 | 1018.9 |
| 20260831205232 | 111 | 161 | 0.0 | 0.0 | 0.00 | 0.00 | 0.00 | 25 | 1019.0 |
| 20260831204726 | 112 | 161 | 0.0 | 0.0 | 0.00 | 0.00 | 0.00 | 24 | 1018.9 |
| 20260831204226 | 118 | 162 | 0.0 | 0.0 | 0.00 | 0.00 | 0.00 | 22 | 1019.0 |
| 20260831203725 | 120 | 161 | 0.0 | 0.0 | 0.00 | 0.00 | 0.00 | 21 | 1019.2 |
| 20260831203225 | 120 | 162 | 0.0 | 0.0 | 0.00 | 0.00 | 0.00 | 22 | 1019.2 |
| 20260831202724 | 124 | 161 | 0.0 | 0.0 | 0.00 | 0.00 | 0.00 | 19 | 1019.3 |
| 20260831202219 | 123 | 161 | 0.0 | 0.0 | 0.00 | 0.00 | 0.00 | 21 | 1019.3 |
| 20260831201718 | 123 | 161 | 0.0 | 0.0 | 0.00 | 0.00 | 0.00 | 19 | 1019.3 |
| 20260831201213 | 124 | 161 | 0.0 | 0.0 | 0.00 | 0.00 | 0.00 | 20 | 1019.2 |
| 20260831200708 | 123 | 161 | 0.0 | 0.0 | 0.00 | 0.00 | 0.00 | 20 | 1019.5 |
| 20260831200203 | 118 | 161 | 0.0 | 0.0 | 0.00 | 0.00 | 0.00 | 22 | 1019.5 |
| 20260831195658 | 120 | 162 | 0.0 | 0.0 | 0.00 | 0.00 | 0.00 | 21 | 1019.5 |
| 20260831195153 | 120 | 161 | 0.0 | 0.0 | 0.00 | 0.00 | 0.00 | 22 | 1019.5 |
| 20260831194648 | 118 | 161 | 0.0 | 0.0 | 0.00 | 0.00 | 0.00 | 21 | 1019.5 |
| 20260831194143 | 119 | 162 | 0.0 | 0.0 | 0.00 | 0.00 | 0.00 | 22 | 1019.6 |
| 20260831193638 | 116 | 161 | 0.0 | 0.0 | 0.00 | 0.00 | 0.00 | 23 | 1019.8 |
| 20260831193133 | 120 | 161 | 0.0 | 0.0 | 0.00 | 0.00 | 0.00 | 21 | 1019.9 |
| 20260831192628 | 118 | 161 | 0.0 | 0.0 | 0.00 | 0.00 | 0.00 | 21 | 1019.7 |
| 20260831192124 | 118 | 162 | 0.0 | 0.0 | 0.00 | 0.00 | 0.00 | 22 | 1020.0 |
| 20260831191620 | 116 | 161 | 0.0 | 0.0 | 0.00 | 0.00 | 0.00 | 23 | 1019.9 |
| 20260831191115 | 116 | 161 | 0.0 | 0.0 | 0.00 | 0.00 | 0.00 | 23 | 1019.9 |
| 20260831190610 | 120 | 161 | 0.0 | 0.0 | 0.00 | 0.00 | 0.00 | 21 | 1019.8 |
| 20260831190109 | 118 | 161 | 0.0 | 0.0 | 0.00 | 0.00 | 0.00 | 22 | 1020.1 |
| 20260831185605 | 118 | 161 | 0.0 | 0.0 | 0.00 | 0.00 | 0.00 | 21 | 1020.3 |
| 20260831185101 | 118 | 161 | 0.0 | 0.0 | 0.00 | 0.00 | 0.00 | 22 | 1020.1 |
| 20260831184559 | 120 | 161 | 0.0 | 0.0 | 0.00 | 0.00 | 0.00 | 22 | 1019.9 |
| 20260831184050 | 116 | 161 | 0.0 | 0.0 | 0.00 | 0.00 | 0.00 | 22 | 1020.1 |
| 20260831183549 | 116 | 161 | 0.0 | 0.0 | 0.00 | 0.00 | 0.00 | 24 | 1020.3 |
| 20260831183048 | 114 | 161 | 0.0 | 0.0 | 0.00 | 0.00 | 0.00 | 23 | 1020.3 |
| 20260831182542 | 116 | 161 | 0.0 | 0.0 | 0.00 | 0.00 | 0.00 | 23 | 1020.4 |
| 20260831182039 | 116 | 161 | 0.0 | 0.0 | 0.00 | 0.00 | 0.00 | 24 | 1020.5 |
| 20260831181538 | 117 | 161 | 0.0 | 0.0 | 0.00 | 0.00 | 0.00 | 22 | 1020.5 |
| 20260831181038 | 117 | 161 | 0.0 | 0.0 | 0.00 | 0.00 | 0.00 | 23 | 1020.7 |
| 20260831180534 | 116 | 161 | 0.0 | 0.0 | 0.00 | 0.00 | 0.00 | 24 | 1020.5 |
| 20260831180028 | 115 | 161 | 0.0 | 0.0 | 0.00 | 0.00 | 0.00 | 25 | 1020.7 |
| 20260831175524 | 112 | 161 | 0.0 | 0.0 | 0.00 | 0.00 | 0.00 | 26 | 1020.7 |
| 20260831175021 | 111 | 161 | 0.0 | 0.0 | 0.00 | 0.00 | 0.00 | 26 | 1020.9 |
| 20260831174520 | 110 | 161 | 0.0 | 0.0 | 0.00 | 0.00 | 0.00 | 27 | 1021.0 |
| 20260831174015 | 109 | 161 | 0.0 | 0.0 | 0.00 | 0.00 | 0.00 | 28 | 1021.0 |
| 20260831173513 | 110 | 161 | 0.0 | 0.0 | 0.00 | 0.00 | 0.00 | 28 | 1021.0 |
| 20260831173010 | 107 | 161 | 0.0 | 0.0 | 0.00 | 0.00 | 0.00 | 29 | 1021.0 |
| 20260831172504 | 110 | 161 | 0.0 | 0.0 | 0.00 | 0.00 | 0.00 | 28 | 1021.1 |
| 20260831171959 | 109 | 161 | 0.0 | 0.0 | 0.00 | 0.00 | 0.00 | 27 | 1021.1 |
| 20260831171455 | 109 | 161 | 0.0 | 0.0 | 0.00 | 0.00 | 0.00 | 28 | 1021.3 |
| 20260831170952 | 109 | 161 | 0.0 | 0.0 | 0.00 | 0.00 | 0.00 | 29 | 1021.3 |
| 20260831170448 | 108 | 161 | 0.0 | 0.0 | 0.00 | 0.00 | 0.00 | 29 | 1021.3 |
| 20260831165945 | 109 | 161 | 0.0 | 0.0 | 0.00 | 0.00 | 0.00 | 27 | 1021.4 |
| 20260831165440 | 108 | 161 | 0.0 | 0.0 | 0.00 | 0.00 | 0.00 | 30 | 1021.4 |
| 20260831164937 | 107 | 162 | 0.0 | 0.0 | 0.00 | 0.00 | 0.00 | 30 | 1021.6 |
| 20260831164432 | 107 | 161 | 0.0 | 0.0 | 0.00 | 0.00 | 0.00 | 30 | 1021.2 |
| 20260831163932 | 107 | 162 | 0.0 | 0.0 | 0.00 | 0.00 | 0.00 | 31 | 1021.4 |
| 20260831163423 | 107 | 162 | 0.0 | 0.0 | 0.00 | 0.00 | 0.00 | 31 | 1021.8 |
| 20260831162921 | 107 | 161 | 0.0 | 0.0 | 0.00 | 0.00 | 0.00 | 31 | 1021.6 |
| 20260831162417 | 106 | 161 | 0.0 | 0.0 | 0.00 | 0.00 | 0.00 | 33 | 1021.4 |
| 20260831161914 | 105 | 162 | 0.0 | 0.0 | 0.00 | 0.00 | 0.00 | 33 | 1021.4 |
| 20260831161412 | 105 | 162 | 0.0 | 0.0 | 0.00 | 0.00 | 0.00 | 35 | 1021.6 |
| 20260831160907 | 106 | 162 | 0.0 | 0.0 | 0.00 | 0.00 | 0.00 | 34 | 1021.7 |
| 20260831160401 | 104 | 162 | 0.0 | 0.0 | 0.00 | 0.00 | 0.00 | 36 | 1021.6 |
| 20260831155856 | 102 | 162 | 0.0 | 0.0 | 0.00 | 0.00 | 0.00 | 37 | 1021.7 |
| 20260831155356 | 102 | 162 | 0.0 | 0.0 | 0.00 | 0.00 | 0.00 | 38 | 1021.8 |
| 20260831154852 | 101 | 162 | 0.0 | 0.0 | 0.00 | 0.00 | 0.00 | 38 | 1021.7 |
| 20260831154348 | 100 | 162 | 0.0 | 0.0 | 0.00 | 0.00 | 0.00 | 40 | 1021.8 |
| 20260831153846 | 99 | 162 | 0.0 | 0.0 | 0.00 | 0.00 | 0.00 | 40 | 1021.8 |
| 20260831153342 | 99 | 162 | 0.0 | 0.0 | 0.00 | 0.00 | 0.00 | 41 | 1021.7 |
| 20260831152838 | 98 | 162 | 0.0 | 0.0 | 0.00 | 0.00 | 0.00 | 41 | 1021.7 |
| 20260831152334 | 99 | 162 | 0.0 | 0.0 | 0.00 | 0.00 | 0.00 | 40 | 1021.7 |
| 20260831151829 | 97 | 162 | 0.0 | 0.0 | 0.00 | 0.00 | 0.00 | 42 | 1021.6 |
| 20260831151328 | 96 | 162 | 0.0 | 0.0 | 0.00 | 0.00 | 0.00 | 43 | 1021.4 |
| 20260831150823 | 96 | 162 | 0.0 | 0.0 | 0.00 | 0.00 | 0.00 | 44 | 1021.8 |
| 20260831150319 | 96 | 162 | 0.0 | 0.0 | 0.00 | 0.00 | 0.00 | 45 | 1021.6 |
| 20260831145817 | 95 | 162 | 0.0 | 0.0 | 0.00 | 0.00 | 0.00 | 45 | 1021.7 |
| 20260831145314 | 93 | 162 | 0.0 | 0.0 | 0.00 | 0.00 | 0.00 | 49 | 1021.7 |
| 20260831144810 | 92 | 162 | 0.0 | 0.0 | 0.00 | 0.00 | 0.00 | 48 | 1021.7 |
| 20260831144306 | 92 | 162 | 0.0 | 0.0 | 0.00 | 0.00 | 0.00 | 50 | 1021.4 |
| 20260831143805 | 91 | 162 | 0.0 | 0.0 | 0.00 | 0.00 | 0.00 | 51 | 1021.7 |
| 20260831143300 | 90 | 162 | 0.0 | 0.0 | 0.00 | 0.00 | 0.00 | 52 | 1021.4 |
| 20260831142755 | 89 | 162 | 0.0 | 0.0 | 0.00 | 0.00 | 0.00 | 54 | 1021.6 |
| 20260831142251 | 87 | 162 | 0.0 | 0.0 | 0.00 | 0.00 | 0.00 | 55 | 1021.4 |
| 20260831141751 | 86 | 162 | 0.0 | 0.0 | 0.00 | 0.00 | 0.00 | 56 | 1021.4 |
| 20260831141246 | 86 | 162 | 0.0 | 0.0 | 0.00 | 0.00 | 0.00 | 57 | 1021.6 |
| 20260831140740 | 85 | 162 | 0.0 | 0.0 | 0.00 | 0.00 | 0.00 | 57 | 1021.3 |
| 20260831140234 | 84 | 162 | 0.0 | 0.0 | 0.00 | 0.00 | 0.00 | 59 | 1021.4 |
| 20260831135732 | 83 | 162 | 0.0 | 0.0 | 0.00 | 0.00 | 0.00 | 60 | 1021.6 |
| 20260831135228 | 83 | 162 | 0.0 | 0.0 | 0.00 | 0.00 | 0.00 | 60 | 1021.8 |
| 20260831134723 | 82 | 162 | 0.0 | 0.0 | 0.00 | 0.00 | 0.00 | 62 | 1021.4 |
| 20260831134220 | 81 | 162 | 0.0 | 0.0 | 0.00 | 0.00 | 0.00 | 63 | 1021.3 |
| 20260831133718 | 81 | 162 | 0.0 | 0.0 | 0.00 | 0.00 | 0.00 | 63 | 1021.7 |
| 20260831133213 | 80 | 162 | 0.0 | 0.0 | 0.00 | 0.00 | 0.00 | 64 | 1021.7 |
| 20260831132709 | 80 | 162 | 0.0 | 0.0 | 0.00 | 0.00 | 0.00 | 65 | 1021.3 |
| 20260831132209 | 78 | 162 | 0.0 | 0.0 | 0.00 | 0.00 | 0.00 | 66 | 1021.3 |
| 20260831131708 | 78 | 162 | 0.0 | 0.0 | 0.00 | 0.00 | 0.00 | 68 | 1021.2 |
| 20260831131206 | 77 | 162 | 0.0 | 0.0 | 0.00 | 0.00 | 0.00 | 70 | 1021.3 |
| 20260831130700 | 76 | 162 | 0.0 | 0.0 | 0.00 | 0.00 | 0.00 | 70 | 1021.0 |
| 20260831130155 | 75 | 162 | 0.0 | 0.0 | 0.00 | 0.00 | 0.00 | 72 | 1020.9 |
| 20260831125653 | 74 | 162 | 0.0 | 0.0 | 0.00 | 0.00 | 0.00 | 73 | 1021.0 |
| 20260831125150 | 73 | 162 | 0.0 | 0.0 | 0.00 | 0.00 | 0.00 | 74 | 1020.9 |
| 20260831124645 | 73 | 162 | 0.0 | 0.0 | 0.00 | 0.00 | 0.00 | 75 | 1020.9 |
| 20260831124142 | 72 | 162 | 0.0 | 0.0 | 0.00 | 0.00 | 0.00 | 76 | 1020.9 |
| 20260831123641 | 71 | 162 | 0.0 | 0.0 | 0.00 | 0.00 | 0.00 | 78 | 1021.0 |
| 20260831123140 | 71 | 162 | 0.0 | 0.0 | 0.00 | 0.00 | 0.00 | 78 | 1020.7 |
| 20260831122640 | 71 | 161 | 0.0 | 0.0 | 0.00 | 0.00 | 0.00 | 78 | 1020.6 |
| 20260831122136 | 70 | 162 | 0.0 | 0.0 | 0.00 | 0.00 | 0.00 | 79 | 1020.6 |
| 20260831121635 | 70 | 161 | 0.0 | 0.0 | 0.00 | 0.00 | 0.00 | 79 | 1020.6 |
| 20260831121126 | 70 | 161 | 0.0 | 0.0 | 0.00 | 0.00 | 0.00 | 80 | 1020.6 |
| 20260831120621 | 70 | 161 | 0.0 | 0.0 | 0.00 | 0.00 | 0.00 | 79 | 1020.6 |
| 20260831120116 | 70 | 161 | 0.0 | 0.0 | 0.00 | 0.00 | 0.00 | 79 | 1020.5 |
| 20260831115612 | 70 | 161 | 0.0 | 0.0 | 0.00 | 0.00 | 0.00 | 79 | 1020.3 |
| 20260831115107 | 70 | 161 | 0.0 | 0.0 | 0.00 | 0.00 | 0.00 | 79 | 1020.0 |
| 20260831114606 | 70 | 160 | 0.0 | 0.0 | 0.00 | 0.00 | 0.00 | 79 | 1020.2 |
| 20260831114101 | 69 | 160 | 0.0 | 0.0 | 0.00 | 0.00 | 0.00 | 79 | 1020.1 |
| 20260831113600 | 69 | 160 | 0.0 | 0.0 | 0.00 | 0.00 | 0.00 | 79 | 1019.9 |
| 20260831113056 | 69 | 160 | 0.0 | 0.0 | 0.00 | 0.00 | 0.00 | 79 | 1019.9 |
| 20260831112555 | 69 | 160 | 0.0 | 0.0 | 0.00 | 0.00 | 0.00 | 79 | 1019.8 |
| 20260831112050 | 69 | 160 | 0.0 | 0.0 | 0.00 | 0.00 | 0.00 | 79 | 1020.0 |
| 20260831111546 | 70 | 160 | 0.0 | 0.0 | 0.00 | 0.00 | 0.00 | 79 | 1020.0 |
| 20260831111042 | 70 | 160 | 0.0 | 0.0 | 0.00 | 0.00 | 0.00 | 79 | 1020.1 |
| 20260831110537 | 70 | 160 | 0.0 | 0.0 | 0.00 | 0.00 | 0.00 | 78 | 1019.8 |
| 20260831110032 | 70 | 160 | 0.0 | 0.0 | 0.00 | 0.00 | 0.00 | 78 | 1019.9 |
| 20260831105530 | 70 | 161 | 0.0 | 0.0 | 0.00 | 0.00 | 0.00 | 78 | 1019.7 |
| 20260831105026 | 70 | 161 | 0.0 | 0.0 | 0.00 | 0.00 | 0.00 | 78 | 1019.6 |
| 20260831104522 | 70 | 161 | 0.0 | 0.0 | 0.00 | 0.00 | 0.00 | 77 | 1019.5 |
| 20260831104018 | 70 | 161 | 0.0 | 0.0 | 0.00 | 0.00 | 0.00 | 77 | 1019.7 |
| 20260831103518 | 70 | 161 | 0.0 | 0.0 | 0.00 | 0.00 | 0.00 | 77 | 1019.8 |
| 20260831103015 | 70 | 161 | 0.0 | 0.0 | 0.00 | 0.00 | 0.00 | 77 | 1019.5 |
| 20260831102508 | 70 | 160 | 0.0 | 0.0 | 0.00 | 0.00 | 0.00 | 78 | 1019.7 |
| 20260831102003 | 70 | 161 | 0.0 | 0.0 | 0.00 | 0.00 | 0.00 | 78 | 1019.7 |
| 20260831101458 | 70 | 161 | 0.0 | 0.0 | 0.00 | 0.00 | 0.00 | 78 | 1019.9 |
| 20260831100954 | 70 | 160 | 0.0 | 0.0 | 0.00 | 0.00 | 0.00 | 78 | 1019.7 |
| 20260831100450 | 70 | 161 | 0.0 | 0.0 | 0.00 | 0.00 | 0.00 | 78 | 1019.9 |
| 20260831095945 | 70 | 161 | 0.0 | 0.0 | 0.00 | 0.00 | 0.00 | 78 | 1019.7 |
| 20260831095444 | 70 | 161 | 0.0 | 0.0 | 0.00 | 0.00 | 0.00 | 77 | 1019.7 |
| 20260831094939 | 71 | 161 | 0.0 | 0.0 | 0.00 | 0.00 | 0.00 | 77 | 1019.6 |
| 20260831094436 | 71 | 161 | 0.0 | 0.0 | 0.00 | 0.00 | 0.00 | 76 | 1019.7 |
| 20260831093931 | 71 | 161 | 0.0 | 0.0 | 0.00 | 0.00 | 0.00 | 76 | 1019.6 |
| 20260831093426 | 71 | 161 | 0.0 | 0.0 | 0.00 | 0.00 | 0.00 | 76 | 1019.6 |
| 20260831092923 | 71 | 161 | 0.0 | 0.0 | 0.00 | 0.00 | 0.00 | 75 | 1019.6 |
| 20260831092418 | 71 | 161 | 0.0 | 0.0 | 0.00 | 0.00 | 0.00 | 75 | 1019.6 |
| 20260831091913 | 71 | 161 | 0.0 | 0.0 | 0.00 | 0.00 | 0.00 | 75 | 1019.4 |
| 20260831091408 | 71 | 161 | 0.0 | 0.0 | 0.00 | 0.00 | 0.00 | 75 | 1019.4 |
| 20260831090903 | 71 | 161 | 0.0 | 0.0 | 0.00 | 0.00 | 0.00 | 75 | 1019.7 |
| 20260831090354 | 72 | 161 | 0.0 | 0.0 | 0.00 | 0.00 | 0.00 | 74 | 1019.6 |
| 20260831085850 | 72 | 161 | 0.0 | 0.0 | 0.00 | 0.00 | 0.00 | 74 | 1019.5 |
| 20260831085344 | 72 | 161 | 0.0 | 0.0 | 0.00 | 0.00 | 0.00 | 74 | 1019.6 |
| 20260831084844 | 72 | 161 | 0.0 | 0.0 | 0.00 | 0.00 | 0.00 | 74 | 1019.6 |
| 20260831084340 | 72 | 161 | 0.0 | 0.0 | 0.00 | 0.00 | 0.00 | 74 | 1019.5 |
| 20260831083836 | 72 | 161 | 0.0 | 0.0 | 0.00 | 0.00 | 0.00 | 73 | 1019.6 |
| 20260831083332 | 72 | 161 | 0.0 | 0.0 | 0.00 | 0.00 | 0.00 | 73 | 1019.5 |
| 20260831082830 | 72 | 161 | 0.0 | 0.0 | 0.00 | 0.00 | 0.00 | 73 | 1019.5 |
| 20260831082325 | 72 | 161 | 0.0 | 0.0 | 0.00 | 0.00 | 0.00 | 73 | 1019.4 |
| 20260831081821 | 72 | 161 | 0.0 | 0.0 | 0.00 | 0.00 | 0.00 | 73 | 1019.4 |
| 20260831081317 | 72 | 161 | 0.0 | 0.0 | 0.00 | 0.00 | 0.00 | 73 | 1019.3 |
| 20260831080812 | 73 | 161 | 0.0 | 0.0 | 0.00 | 0.00 | 0.00 | 73 | 1019.3 |
| 20260831080307 | 73 | 161 | 0.0 | 0.0 | 0.00 | 0.00 | 0.00 | 73 | 1019.5 |
| 20260831075802 | 73 | 161 | 0.0 | 0.0 | 0.00 | 0.00 | 0.00 | 73 | 1019.2 |
| 20260831075258 | 73 | 161 | 0.0 | 0.0 | 0.00 | 0.00 | 0.00 | 73 | 1019.3 |
| 20260831074758 | 73 | 161 | 0.0 | 0.0 | 0.00 | 0.00 | 0.00 | 72 | 1019.5 |
| 20260831074252 | 73 | 161 | 0.0 | 0.0 | 0.00 | 0.00 | 0.00 | 72 | 1019.2 |
| 20260831073748 | 73 | 161 | 0.0 | 0.0 | 0.00 | 0.00 | 0.00 | 72 | 1019.1 |
| 20260831073246 | 73 | 161 | 0.0 | 0.0 | 0.00 | 0.00 | 0.00 | 72 | 1019.3 |
| 20260831072741 | 74 | 161 | 0.0 | 0.0 | 0.00 | 0.00 | 0.00 | 71 | 1019.2 |
| 20260831072238 | 74 | 161 | 0.0 | 0.0 | 0.00 | 0.00 | 0.00 | 71 | 1019.3 |
| 20260831071738 | 74 | 161 | 0.0 | 0.0 | 0.00 | 0.00 | 0.00 | 70 | 1019.3 |
| 20260831071232 | 75 | 161 | 0.0 | 0.0 | 0.00 | 0.00 | 0.00 | 70 | 1019.2 |
| 20260831070727 | 75 | 161 | 0.0 | 0.0 | 0.00 | 0.00 | 0.00 | 69 | 1019.2 |
| 20260831070226 | 75 | 161 | 0.0 | 0.0 | 0.00 | 0.00 | 0.00 | 69 | 1019.2 |
| 20260831065725 | 75 | 161 | 0.0 | 0.0 | 0.00 | 0.00 | 0.00 | 69 | 1019.1 |
| 20260831065224 | 75 | 161 | 0.0 | 0.0 | 0.00 | 0.00 | 0.00 | 69 | 1019.3 |
| 20260831064720 | 75 | 161 | 0.0 | 0.0 | 0.00 | 0.00 | 0.00 | 69 | 1019.3 |
| 20260831064215 | 75 | 161 | 0.0 | 0.0 | 0.00 | 0.00 | 0.00 | 69 | 1019.3 |
| 20260831063711 | 75 | 161 | 0.0 | 0.0 | 0.00 | 0.00 | 0.00 | 69 | 1019.3 |
| 20260831063206 | 76 | 161 | 0.0 | 0.0 | 0.00 | 0.00 | 0.00 | 69 | 1019.4 |
| 20260831062705 | 76 | 161 | 0.0 | 0.0 | 0.00 | 0.00 | 0.00 | 68 | 1019.3 |
| 20260831062205 | 76 | 161 | 0.0 | 0.0 | 0.00 | 0.00 | 0.00 | 68 | 1019.2 |
| 20260831061703 | 76 | 161 | 0.0 | 0.0 | 0.00 | 0.00 | 0.00 | 68 | 1019.4 |
| 20260831061159 | 76 | 161 | 0.0 | 0.0 | 0.00 | 0.00 | 0.00 | 67 | 1019.1 |
| 20260831060655 | 76 | 161 | 0.0 | 0.0 | 0.00 | 0.00 | 0.00 | 67 | 1019.3 |
| 20260831060154 | 77 | 161 | 0.0 | 0.0 | 0.00 | 0.00 | 0.00 | 67 | 1019.4 |
| 20260831055654 | 77 | 161 | 0.0 | 0.0 | 0.00 | 0.00 | 0.00 | 67 | 1019.3 |
| 20260831055149 | 77 | 161 | 0.0 | 0.0 | 0.00 | 0.00 | 0.00 | 67 | 1019.4 |
| 20260831054644 | 77 | 161 | 0.0 | 0.0 | 0.00 | 0.00 | 0.00 | 67 | 1019.4 |
| 20260831054143 | 77 | 161 | 0.0 | 0.0 | 0.00 | 0.00 | 0.00 | 66 | 1019.2 |
| 20260831053638 | 77 | 161 | 0.0 | 0.0 | 0.00 | 0.00 | 0.00 | 66 | 1019.1 |
| 20260831053137 | 78 | 161 | 0.0 | 0.0 | 0.00 | 0.00 | 0.00 | 65 | 1019.2 |
| 20260831052636 | 78 | 161 | 0.0 | 0.0 | 0.00 | 0.00 | 0.00 | 65 | 1019.2 |
| 20260831052135 | 78 | 161 | 0.0 | 0.0 | 0.00 | 0.00 | 0.00 | 64 | 1019.4 |
| 20260831051634 | 78 | 161 | 0.0 | 0.0 | 0.00 | 0.00 | 0.00 | 64 | 1019.3 |
| 20260831051133 | 78 | 161 | 0.0 | 0.0 | 0.00 | 0.00 | 0.00 | 64 | 1019.3 |
| 20260831050627 | 79 | 161 | 0.0 | 0.0 | 0.00 | 0.00 | 0.00 | 63 | 1019.2 |
| 20260831050121 | 79 | 161 | 0.0 | 0.0 | 0.00 | 0.00 | 0.00 | 63 | 1019.1 |
| 20260831045620 | 79 | 161 | 0.0 | 0.0 | 0.00 | 0.00 | 0.00 | 63 | 1019.2 |
| 20260831045110 | 79 | 161 | 0.0 | 0.0 | 0.00 | 0.00 | 0.00 | 63 | 1019.0 |
| 20260831044605 | 79 | 161 | 0.0 | 0.0 | 0.00 | 0.00 | 0.00 | 63 | 1019.0 |
| 20260831044100 | 79 | 161 | 0.0 | 0.0 | 0.00 | 0.00 | 0.00 | 62 | 1018.9 |
| 20260831043555 | 79 | 161 | 0.0 | 0.0 | 0.00 | 0.00 | 0.00 | 62 | 1019.0 |
| 20260831043051 | 79 | 161 | 0.0 | 0.0 | 0.00 | 0.00 | 0.00 | 62 | 1019.2 |
| 20260831042550 | 79 | 161 | 0.0 | 0.0 | 0.00 | 0.00 | 0.00 | 62 | 1019.2 |
| 20260831042045 | 79 | 161 | 0.0 | 0.0 | 0.00 | 0.00 | 0.00 | 62 | 1018.7 |
| 20260831041540 | 80 | 161 | 0.0 | 0.0 | 0.00 | 0.00 | 0.00 | 61 | 1018.7 |
| 20260831041039 | 80 | 161 | 0.0 | 0.0 | 0.00 | 0.00 | 0.00 | 61 | 1019.1 |
| 20260831040534 | 80 | 161 | 0.0 | 0.0 | 0.00 | 0.00 | 0.00 | 60 | 1018.7 |
| 20260831040033 | 80 | 161 | 0.0 | 0.0 | 0.00 | 0.00 | 0.00 | 60 | 1018.7 |
| 20260831035525 | 81 | 161 | 0.0 | 0.0 | 0.00 | 0.00 | 0.00 | 60 | 1018.7 |
| 20260831035021 | 81 | 161 | 0.0 | 0.0 | 0.00 | 0.00 | 0.00 | 60 | 1018.6 |
| 20260831034515 | 81 | 161 | 0.0 | 0.0 | 0.00 | 0.00 | 0.00 | 59 | 1018.6 |
| 20260831034010 | 81 | 161 | 0.0 | 0.0 | 0.00 | 0.00 | 0.00 | 59 | 1018.3 |
| 20260831033506 | 82 | 161 | 0.0 | 0.0 | 0.00 | 0.00 | 0.00 | 59 | 1018.5 |
| 20260831032955 | 82 | 161 | 0.0 | 0.0 | 0.00 | 0.00 | 0.00 | 58 | 1018.4 |
| 20260831032450 | 82 | 161 | 0.0 | 0.0 | 0.00 | 0.00 | 0.00 | 58 | 1018.6 |
| 20260831031945 | 82 | 161 | 0.0 | 0.0 | 0.00 | 0.00 | 0.00 | 58 | 1018.5 |
| 20260831031444 | 82 | 161 | 0.0 | 0.0 | 0.00 | 0.00 | 0.00 | 58 | 1018.5 |
| 20260831030943 | 82 | 161 | 0.0 | 0.0 | 0.00 | 0.00 | 0.00 | 57 | 1018.5 |
| 20260831030438 | 82 | 161 | 0.0 | 0.0 | 0.00 | 0.00 | 0.00 | 57 | 1018.6 |
| 20260831025936 | 83 | 161 | 0.0 | 0.0 | 0.00 | 0.00 | 0.00 | 56 | 1018.6 |
| 20260831025435 | 83 | 161 | 0.0 | 0.0 | 0.00 | 0.00 | 0.00 | 56 | 1018.7 |
| 20260831024931 | 83 | 161 | 0.0 | 0.0 | 0.00 | 0.00 | 0.00 | 55 | 1018.5 |
| 20260831024430 | 83 | 161 | 0.0 | 0.0 | 0.00 | 0.00 | 0.00 | 55 | 1018.6 |
| 20260831023925 | 83 | 161 | 0.0 | 0.0 | 0.00 | 0.00 | 0.00 | 54 | 1018.6 |
| 20260831023424 | 84 | 161 | 0.0 | 0.0 | 0.00 | 0.00 | 0.00 | 54 | 1018.3 |
| 20260831022919 | 84 | 161 | 0.0 | 0.0 | 0.00 | 0.00 | 0.00 | 53 | 1018.4 |
| 20260831022417 | 84 | 161 | 0.0 | 0.0 | 0.00 | 0.00 | 0.00 | 53 | 1018.4 |
| 20260831021912 | 84 | 161 | 0.0 | 0.0 | 0.00 | 0.00 | 0.00 | 52 | 1018.2 |
| 20260831021411 | 84 | 161 | 0.0 | 0.0 | 0.00 | 0.00 | 0.00 | 52 | 1018.2 |
| 20260831020907 | 84 | 161 | 0.0 | 0.0 | 0.00 | 0.00 | 0.00 | 51 | 1018.1 |
| 20260831020402 | 84 | 161 | 0.0 | 0.0 | 0.00 | 0.00 | 0.00 | 51 | 1018.0 |
| 20260831015856 | 84 | 161 | 0.0 | 0.0 | 0.00 | 0.00 | 0.00 | 50 | 1018.2 |
| 20260831015352 | 85 | 161 | 0.0 | 0.0 | 0.00 | 0.00 | 0.00 | 50 | 1018.0 |
| 20260831014852 | 85 | 161 | 0.0 | 0.0 | 0.00 | 0.00 | 0.00 | 50 | 1017.9 |
| 20260831014347 | 85 | 161 | 0.0 | 0.0 | 0.00 | 0.00 | 0.00 | 50 | 1017.9 |
| 20260831013843 | 85 | 161 | 0.0 | 0.0 | 0.00 | 0.00 | 0.00 | 49 | 1017.9 |
| 20260831013338 | 85 | 161 | 0.0 | 0.0 | 0.00 | 0.00 | 0.00 | 49 | 1017.6 |
| 20260831012832 | 85 | 161 | 0.0 | 0.0 | 0.00 | 0.00 | 0.00 | 49 | 1017.7 |
| 20260831012328 | 86 | 161 | 0.0 | 0.0 | 0.00 | 0.00 | 0.00 | 49 | 1017.5 |
| 20260831011827 | 86 | 161 | 0.0 | 0.0 | 0.00 | 0.00 | 0.00 | 48 | 1017.5 |
| 20260831011322 | 86 | 161 | 0.0 | 0.0 | 0.00 | 0.00 | 0.00 | 48 | 1017.3 |
| 20260831010813 | 86 | 161 | 0.0 | 0.0 | 0.00 | 0.00 | 0.00 | 48 | 1017.4 |
| 20260831010312 | 87 | 161 | 0.0 | 0.0 | 0.00 | 0.00 | 0.00 | 47 | 1017.4 |
| 20260831005808 | 87 | 161 | 0.0 | 0.0 | 0.00 | 0.00 | 0.00 | 47 | 1017.5 |
| 20260831005306 | 88 | 161 | 0.0 | 0.0 | 0.00 | 0.00 | 0.00 | 46 | 1017.5 |
| 20260831004803 | 88 | 161 | 0.0 | 0.0 | 0.00 | 0.00 | 0.00 | 45 | 1017.6 |
| 20260831004300 | 89 | 161 | 0.0 | 0.0 | 0.00 | 0.00 | 0.00 | 44 | 1017.5 |
| 20260831003755 | 89 | 161 | 0.0 | 0.0 | 0.00 | 0.00 | 0.00 | 44 | 1017.6 |
| 20260831003251 | 89 | 161 | 0.0 | 0.0 | 0.00 | 0.00 | 0.00 | 43 | 1017.3 |
| 20260831002750 | 90 | 161 | 0.0 | 0.0 | 0.00 | 0.00 | 0.00 | 43 | 1017.5 |
| 20260831002245 | 91 | 161 | 0.0 | 0.0 | 0.00 | 0.00 | 0.00 | 43 | 1017.5 |
| 20260831001741 | 91 | 161 | 0.0 | 0.0 | 0.00 | 0.00 | 0.00 | 42 | 1017.7 |
| 20260831001236 | 92 | 161 | 0.0 | 0.0 | 0.00 | 0.00 | 0.00 | 41 | 1017.5 |
| 20260831000733 | 93 | 161 | 0.0 | 0.0 | 0.00 | 0.00 | 0.00 | 41 | 1017.7 |
| 20260831000228 | 93 | 161 | 0.0 | 0.0 | 0.00 | 0.00 | 0.00 | 40 | 1017.6 |
| 20260830235726 | 94 | 161 | 0.0 | 0.0 | 0.00 | 0.00 | 0.00 | 39 | 1017.8 |
| 20260830235221 | 94 | 161 | 0.0 | 0.0 | 0.00 | 0.00 | 0.00 | 39 | 1017.8 |
| 20260830234721 | 95 | 161 | 0.0 | 0.0 | 0.00 | 0.00 | 0.00 | 39 | 1017.8 |
| 20260830234217 | 95 | 161 | 0.0 | 0.0 | 0.00 | 0.00 | 0.00 | 38 | 1017.7 |
| 20260830233713 | 96 | 161 | 0.0 | 0.0 | 0.00 | 0.00 | 0.00 | 38 | 1017.7 |
| 20260830233208 | 96 | 161 | 0.0 | 0.0 | 0.00 | 0.00 | 0.00 | 37 | 1017.9 |
| 20260830232704 | 96 | 161 | 0.0 | 0.0 | 0.00 | 0.00 | 0.00 | 36 | 1017.7 |
| 20260830232159 | 96 | 161 | 0.0 | 0.0 | 0.00 | 0.00 | 0.00 | 36 | 1017.8 |
| 20260830231656 | 96 | 161 | 0.0 | 0.0 | 0.00 | 0.00 | 0.00 | 36 | 1017.5 |
| 20260830231155 | 96 | 161 | 0.0 | 0.0 | 0.00 | 0.00 | 0.00 | 35 | 1017.6 |
| 20260830230650 | 96 | 161 | 0.0 | 0.0 | 0.00 | 0.00 | 0.00 | 35 | 1017.5 |
| 20260830230150 | 97 | 161 | 0.0 | 0.0 | 0.00 | 0.00 | 0.00 | 35 | 1017.8 |
| 20260830225645 | 98 | 161 | 0.0 | 0.0 | 0.00 | 0.00 | 0.00 | 34 | 1017.6 |
| 20260830225140 | 99 | 161 | 0.0 | 0.0 | 0.00 | 0.00 | 0.00 | 34 | 1017.5 |
| 20260830224639 | 99 | 161 | 0.0 | 0.0 | 0.00 | 0.00 | 0.00 | 34 | 1017.7 |
| 20260830224135 | 100 | 161 | 0.0 | 0.0 | 0.00 | 0.00 | 0.00 | 33 | 1017.5 |
| 20260830223632 | 100 | 161 | 0.0 | 0.0 | 0.00 | 0.00 | 0.00 | 33 | 1017.5 |
| 20260830223132 | 100 | 161 | 0.0 | 0.0 | 0.00 | 0.00 | 0.00 | 32 | 1017.4 |
| 20260830222627 | 101 | 161 | 0.0 | 0.0 | 0.00 | 0.00 | 0.00 | 31 | 1017.4 |
| 20260830222122 | 104 | 162 | 0.0 | 0.0 | 0.00 | 0.00 | 0.00 | 30 | 1017.6 |
| 20260830221618 | 106 | 162 | 0.0 | 0.0 | 0.00 | 0.00 | 0.00 | 29 | 1017.6 |
| 20260830221113 | 109 | 162 | 0.0 | 0.0 | 0.00 | 0.00 | 0.00 | 27 | 1017.4 |
| 20260830220609 | 112 | 162 | 0.0 | 0.0 | 0.00 | 0.00 | 0.00 | 26 | 1017.5 |
| 20260830220107 | 109 | 162 | 0.0 | 0.0 | 0.00 | 0.00 | 0.00 | 26 | 1017.6 |
| 20260830215606 | 104 | 162 | 0.0 | 0.0 | 0.00 | 0.00 | 0.00 | 28 | 1017.5 |
| 20260830215055 | 104 | 161 | 0.0 | 0.0 | 0.00 | 0.00 | 0.00 | 30 | 1017.6 |
| 20260830214550 | 106 | 161 | 0.0 | 0.0 | 0.00 | 0.00 | 0.00 | 27 | 1017.8 |
| 20260830214045 | 106 | 161 | 0.0 | 0.0 | 0.00 | 0.00 | 0.00 | 27 | 1017.8 |